{"data":{"norad_id":27004,"intl_designator":"2001-056D","name":"MAROC-TUBSAT","alt_names":[],"object_type":"PAYLOAD","status":"ACTIVE","operator":null,"country":"GER","launch_date":"2001-12-10","launch_site_code":"TYMSC","launch_vehicle":null,"mission":null,"orbit_class":"UNKNOWN","rcs_meters":0.349,"size_class":null,"mass_kg":null,"dimensions":null,"purposes":["earth_obs"],"wikipedia_slug":null,"has_3d_model":false,"image_url":null,"decayed_at":null,"tle_current":{"epoch":"2026-05-25T02:02:17.082816Z","epoch_age_seconds":70952,"freshness":"FRESH","line1":"1 27004U 01056D   26145.08491994 -.00000020  00000+0  29730-4 0  9994","line2":"2 27004  99.8074 321.5099 0019558 199.9843 271.0215 13.70261364223022","mean_motion":13.70261364,"eccentricity":0.0019558,"inclination_deg":99.8074,"raan_deg":321.5099,"arg_perigee_deg":199.9843,"mean_anomaly_deg":271.0215,"bstar":2.973e-5,"rev_number":22302,"period_min":105.0894404405,"perigee_km":984.20534661323,"apogee_km":1013.0603194922,"semimajor_km":7376.7698330527,"source":"CELESTRAK","updated_at":"2026-05-25T13:38:12.741814Z"}}}